Location: Alvis C Story Elementary School
(33.0968°N, 96.6364°W)
Time: 12:22:27
(UTC+00:00)

Cosmos 1602 - Pass Details

Date: 04 July 2022
Orbit: 509 x 526 km, 82.5° (Epoch: 13 August)

Event Time Altitude Azimuth Distance (km) Brightness Sun altitude
Exits shadow 09:59:46 15° 281° (W) 1,433 5.6 -15.1°
Maximum altitude 09:59:55 15° 284° (WNW) 1,432 5.6 -15.1°
Drops below altitude 10° 10:02:10 10° 321° (NW) 1,729 6.4 -14.8°
Sets 10:05:03 0° 345° (NNW) 2,621 7.6 -14.3°
